Location: El Conde
(10.2895°N, 67.2409°W)
Time: 07:44:36
(UTC+00:00)

Cosmos 1802 Rocket - Pass Details

Date: 19 May 2024
Orbit: 954 x 1010 km, 82.9° (Epoch: 22 June)

Event Time Altitude Azimuth Distance (km) Brightness Sun altitude
Rises 23:31:42 0° 357° (N) 3,729 7.4 -11.7°
Reaches altitude 10° 23:34:14 10° 358° (N) 2,776 6.7 -12.2°
Maximum altitude 23:40:37 84° 86° (E) 1,007 4.0 -13.7°
Drops below altitude 10° 23:46:57 10° 175° (S) 2,746 6.1 -15.1°
Sets 23:49:27 0° 175° (S) 3,687 6.7 -15.6°
